SWA3913 KDAL-KELP

Flight info

Callsign SWA3913
Flight time 1h 27m
Altitude 36000
Route KKITY5 CIKAN LIFFT SAMMR3
Aircraft B737/M-SDE2E3FGHIRWXY/LB1

Departure

Time 2026-04-20 19:22
Airport Dallas Love Field (KDAL)

Arrival

Time 2026-04-20 20:49
Airport El Paso International Airport (KELP)
Time Latitude Longitude Altitude Speed Heading
2026-04-20 18:03 32.84647 -96.85183 483 ft 0 kts 180°
2026-04-20 19:12 32.84649 -96.85183 483 ft 1 kts 180°
2026-04-20 19:12 32.84664 -96.85183 483 ft 2 kts 180°
2026-04-20 19:12 32.84679 -96.85183 483 ft 2 kts 180°
2026-04-20 19:13 32.84694 -96.85183 483 ft 2 kts 180°
2026-04-20 19:13 32.84709 -96.85183 483 ft 2 kts 180°
2026-04-20 19:13 32.84724 -96.85180 484 ft 2 kts 207°
2026-04-20 19:13 32.84736 -96.85169 484 ft 2 kts 230°
2026-04-20 19:14 32.84743 -96.85154 484 ft 2 kts 253°
2026-04-20 19:14 32.84745 -96.85143 484 ft 1 kts 268°
2026-04-20 19:14 32.84745 -96.85135 484 ft 0 kts 270°
2026-04-20 19:16 32.84745 -96.85143 484 ft 2 kts 270°
2026-04-20 19:16 32.84745 -96.85175 483 ft 5 kts 270°
2026-04-20 19:16 32.84745 -96.85230 483 ft 7 kts 269°
2026-04-20 19:17 32.84754 -96.85293 483 ft 8 kts 304°
2026-04-20 19:17 32.84804 -96.85316 483 ft 8 kts
2026-04-20 19:17 32.84865 -96.85272 483 ft 12 kts 45°
2026-04-20 19:17 32.84932 -96.85191 484 ft 13 kts 46°
2026-04-20 19:18 32.84993 -96.85115 485 ft 12 kts 46°
2026-04-20 19:18 32.85057 -96.85090 486 ft 10 kts 330°
2026-04-20 19:18 32.85114 -96.85152 485 ft 12 kts 315°
2026-04-20 19:18 32.85183 -96.85231 485 ft 14 kts 316°
2026-04-20 19:19 32.85262 -96.85323 484 ft 17 kts 315°
2026-04-20 19:19 32.85353 -96.85431 483 ft 19 kts 315°
2026-04-20 19:19 32.85445 -96.85538 482 ft 17 kts 315°
2026-04-20 19:19 32.85524 -96.85628 481 ft 14 kts 316°
2026-04-20 19:20 32.85589 -96.85702 481 ft 11 kts 316°
2026-04-20 19:20 32.85644 -96.85744 480 ft 8 kts
2026-04-20 19:20 32.85688 -96.85716 480 ft 8 kts 42°
2026-04-20 19:20 32.85706 -96.85657 481 ft 7 kts 109°
2026-04-20 19:21 32.85692 -96.85635 481 ft 0 kts 135°
2026-04-20 19:21 32.85577 -96.85505 482 ft 54 kts 136°
2026-04-20 19:21 32.85149 -96.85009 487 ft 115 kts 136°
2026-04-20 19:22 32.84467 -96.84220 564 ft 154 kts 137°
2026-04-20 19:22 32.83724 -96.83364 1157 ft 151 kts 136°
2026-04-20 19:22 32.82948 -96.82487 1577 ft 156 kts 138°
2026-04-20 19:22 32.82080 -96.81583 1814 ft 174 kts 140°
2026-04-20 19:23 32.81131 -96.80609 2115 ft 188 kts 139°
2026-04-20 19:23 32.80115 -96.79521 2423 ft 202 kts 138°
2026-04-20 19:23 32.79026 -96.78350 2681 ft 221 kts 137°
2026-04-20 19:23 32.77855 -96.77100 3064 ft 235 kts 138°
2026-04-20 19:24 32.76599 -96.75764 3442 ft 248 kts 137°
2026-04-20 19:24 32.75311 -96.74356 3995 ft 256 kts 136°
2026-04-20 19:24 32.74041 -96.72899 4601 ft 259 kts 136°
2026-04-20 19:24 32.72646 -96.71528 5208 ft 261 kts 148°
2026-04-20 19:25 32.70942 -96.70824 5818 ft 266 kts 174°
2026-04-20 19:25 32.69088 -96.70990 6438 ft 266 kts 193°
2026-04-20 19:25 32.67331 -96.71706 7048 ft 269 kts 202°
2026-04-20 19:25 32.65614 -96.72628 7662 ft 274 kts 205°
2026-04-20 19:26 32.63965 -96.73726 8267 ft 276 kts 216°
2026-04-20 19:26 32.62616 -96.75334 8875 ft 280 kts 234°
2026-04-20 19:26 32.61776 -96.77415 9490 ft 285 kts 252°
2026-04-20 19:26 32.61458 -96.79748 10117 ft 291 kts 265°
2026-04-20 19:27 32.61430 -96.82206 10592 ft 306 kts 269°
2026-04-20 19:27 32.61476 -96.84783 11040 ft 321 kts 270°
2026-04-20 19:27 32.61527 -96.87445 11623 ft 328 kts 269°
2026-04-20 19:27 32.61562 -96.90174 12233 ft 333 kts 269°
2026-04-20 19:28 32.61583 -96.92891 12835 ft 336 kts 269°
2026-04-20 19:28 32.61595 -96.95666 13441 ft 339 kts 269°
2026-04-20 19:28 32.61604 -96.98474 14052 ft 340 kts 269°
2026-04-20 19:28 32.61612 -97.01243 14654 ft 340 kts 269°
2026-04-20 19:29 32.61620 -97.04071 15267 ft 341 kts 270°
2026-04-20 19:29 32.61628 -97.06843 15868 ft 339 kts 270°
2026-04-20 19:29 32.61635 -97.09664 16479 ft 342 kts 270°
2026-04-20 19:29 32.61642 -97.12461 17080 ft 342 kts 270°
2026-04-20 19:30 32.61647 -97.15269 17683 ft 343 kts 270°
2026-04-20 19:30 32.61651 -97.18087 18295 ft 343 kts 270°
2026-04-20 19:30 32.61655 -97.20903 18908 ft 345 kts 270°
2026-04-20 19:30 32.61659 -97.23779 19530 ft 348 kts 270°
2026-04-20 19:31 32.61663 -97.26614 20138 ft 349 kts 270°
2026-04-20 19:31 32.61667 -97.29506 20760 ft 350 kts 270°
2026-04-20 19:31 32.61723 -97.32397 21381 ft 352 kts 274°
2026-04-20 19:31 32.61972 -97.35245 21995 ft 354 kts 277°
2026-04-20 19:32 32.62368 -97.38129 22621 ft 355 kts 279°
2026-04-20 19:32 32.62817 -97.40990 23249 ft 355 kts 280°
2026-04-20 19:32 32.63277 -97.43842 23888 ft 355 kts 280°
2026-04-20 19:32 32.63734 -97.46693 24530 ft 354 kts 279°
2026-04-20 19:33 32.64185 -97.49545 25178 ft 352 kts 279°
2026-04-20 19:33 32.64634 -97.52420 25747 ft 353 kts 279°
2026-04-20 19:33 32.65075 -97.55273 26048 ft 360 kts 279°
2026-04-20 19:33 32.65524 -97.58212 26334 ft 367 kts 279°
2026-04-20 19:34 32.65985 -97.61240 26627 ft 374 kts 279°
2026-04-20 19:34 32.66448 -97.64290 26919 ft 380 kts 279°
2026-04-20 19:34 32.66919 -97.67392 27206 ft 386 kts 278°
2026-04-20 19:34 32.67342 -97.70549 27496 ft 392 kts 276°
2026-04-20 19:35 32.67582 -97.73767 27783 ft 397 kts 271°
2026-04-20 19:35 32.67567 -97.77045 28070 ft 402 kts 267°
2026-04-20 19:35 32.67383 -97.80380 28361 ft 402 kts 265°
2026-04-20 19:35 32.67131 -97.83651 28646 ft 401 kts 264°
2026-04-20 19:36 32.66853 -97.86977 28944 ft 399 kts 264°
2026-04-20 19:36 32.66574 -97.90243 29357 ft 397 kts 264°
2026-04-20 19:36 32.66303 -97.93451 29773 ft 396 kts 264°
2026-04-20 19:36 32.66033 -97.96700 30180 ft 396 kts 264°
2026-04-20 19:37 32.65765 -97.99965 30586 ft 397 kts 264°
2026-04-20 19:37 32.65499 -98.03218 30993 ft 396 kts 264°
2026-04-20 19:37 32.65237 -98.06467 31401 ft 395 kts 264°
2026-04-20 19:37 32.64978 -98.09721 31808 ft 393 kts 264°
2026-04-20 19:38 32.64720 -98.12920 32213 ft 392 kts 264°
2026-04-20 19:38 32.64459 -98.16157 32626 ft 390 kts 264°
2026-04-20 19:38 32.64202 -98.19345 33028 ft 389 kts 263°
2026-04-20 19:38 32.63943 -98.22523 33431 ft 388 kts 264°
2026-04-20 19:39 32.63686 -98.25690 33828 ft 386 kts 263°
2026-04-20 19:39 32.63430 -98.28844 34183 ft 385 kts 263°
2026-04-20 19:39 32.63174 -98.31988 34530 ft 383 kts 263°
2026-04-20 19:39 32.62917 -98.35125 34886 ft 380 kts 263°
2026-04-20 19:40 32.62658 -98.38285 35241 ft 378 kts 263°
2026-04-20 19:40 32.62403 -98.41370 35587 ft 375 kts 263°
2026-04-20 19:40 32.62147 -98.44463 35836 ft 375 kts 263°
2026-04-20 19:41 32.61631 -98.50690 36050 ft 377 kts 263°
2026-04-20 19:41 32.61371 -98.53828 36197 ft 379 kts 263°
2026-04-20 19:41 32.61113 -98.56929 36261 ft 383 kts 263°
2026-04-20 19:42 32.60587 -98.63233 36256 ft 380 kts 263°
2026-04-20 19:42 32.60061 -98.69492 36275 ft 380 kts 263°
2026-04-20 19:43 32.59530 -98.75760 36275 ft 380 kts 263°
2026-04-20 19:43 32.59000 -98.81985 36287 ft 380 kts 263°
2026-04-20 19:44 32.58467 -98.88210 36273 ft 379 kts 263°
2026-04-20 19:44 32.57928 -98.94468 36269 ft 379 kts 263°
2026-04-20 19:45 32.57388 -99.00706 36256 ft 380 kts 263°
2026-04-20 19:45 32.56841 -99.06988 36243 ft 380 kts 263°
2026-04-20 19:46 32.56295 -99.13228 36240 ft 381 kts 263°
2026-04-20 19:46 32.55745 -99.19479 36241 ft 381 kts 263°
2026-04-20 19:47 32.55191 -99.25722 36241 ft 381 kts 263°
2026-04-20 19:47 32.54634 -99.31957 36244 ft 382 kts 263°
2026-04-20 19:48 32.54162 -99.38239 36247 ft 381 kts 264°
2026-04-20 19:48 32.53812 -99.44497 36258 ft 381 kts 265°
2026-04-20 19:49 32.53463 -99.50753 36263 ft 381 kts 265°
2026-04-20 19:49 32.53096 -99.57011 36266 ft 381 kts 264°
2026-04-20 19:50 32.52717 -99.63277 36274 ft 382 kts 264°
2026-04-20 19:50 32.52330 -99.69566 36269 ft 383 kts 264°
2026-04-20 19:51 32.51940 -99.75834 36272 ft 382 kts 264°
2026-04-20 19:51 32.51548 -99.82119 36272 ft 382 kts 264°
2026-04-20 19:52 32.51152 -99.88397 36270 ft 381 kts 264°
2026-04-20 19:52 32.50754 -99.94666 36266 ft 382 kts 264°
2026-04-20 19:53 32.50352 -100.00925 36270 ft 383 kts 264°
2026-04-20 19:53 32.49947 -100.07202 36251 ft 383 kts 264°
2026-04-20 19:54 32.49536 -100.13511 36238 ft 383 kts 264°
2026-04-20 19:54 32.49125 -100.19775 36236 ft 383 kts 264°
2026-04-20 19:55 32.48706 -100.26099 36234 ft 383 kts 264°
2026-04-20 19:55 32.48285 -100.32358 36249 ft 384 kts 263°
2026-04-20 19:56 32.47794 -100.37618 36256 ft 384 kts 261°
2026-04-20 19:56 32.46988 -100.44902 36268 ft 383 kts 261°
2026-04-20 19:57 32.46300 -100.51157 36270 ft 384 kts 261°
2026-04-20 19:57 32.45626 -100.57407 36265 ft 383 kts 261°
2026-04-20 19:58 32.44952 -100.63694 36251 ft 384 kts 261°
2026-04-20 19:58 32.44277 -100.69981 36239 ft 383 kts 261°
2026-04-20 19:59 32.43604 -100.76224 36226 ft 382 kts 261°
2026-04-20 19:59 32.42930 -100.82447 36225 ft 382 kts 261°
2026-04-20 20:00 32.42250 -100.88705 36225 ft 382 kts 261°
2026-04-20 20:00 32.41570 -100.94937 36226 ft 383 kts 261°
2026-04-20 20:01 32.40884 -101.01193 36223 ft 383 kts 261°
2026-04-20 20:01 32.40192 -101.07457 36224 ft 383 kts 261°
2026-04-20 20:02 32.39498 -101.13710 36223 ft 384 kts 261°
2026-04-20 20:02 32.38803 -101.19969 36221 ft 384 kts 261°
2026-04-20 20:03 32.38105 -101.26215 36221 ft 384 kts 261°
2026-04-20 20:03 32.37403 -101.32475 36222 ft 384 kts 261°
2026-04-20 20:04 32.36696 -101.38736 36232 ft 385 kts 261°
2026-04-20 20:04 32.35983 -101.45038 36229 ft 384 kts 261°
2026-04-20 20:05 32.35270 -101.51293 36232 ft 384 kts 261°
2026-04-20 20:05 32.34557 -101.57533 36224 ft 384 kts 261°
2026-04-20 20:06 32.33837 -101.63796 36220 ft 384 kts 261°
2026-04-20 20:06 32.33115 -101.70057 36216 ft 384 kts 260°
2026-04-20 20:07 32.32389 -101.76322 36213 ft 383 kts 260°
2026-04-20 20:07 32.31662 -101.82566 36210 ft 383 kts 260°
2026-04-20 20:08 32.30931 -101.88814 36202 ft 383 kts 260°
2026-04-20 20:08 32.30199 -101.95049 36204 ft 383 kts 260°
2026-04-20 20:09 32.29458 -102.01326 36202 ft 385 kts 260°
2026-04-20 20:09 32.28721 -102.07548 36203 ft 384 kts 260°
2026-04-20 20:10 32.27977 -102.13810 36214 ft 385 kts 260°
2026-04-20 20:10 32.27229 -102.20058 36210 ft 385 kts 260°
2026-04-20 20:11 32.26479 -102.26314 36202 ft 384 kts 261°
2026-04-20 20:11 32.25726 -102.32570 36200 ft 385 kts 260°
2026-04-20 20:12 32.24970 -102.38823 36203 ft 385 kts 260°
2026-04-20 20:12 32.24206 -102.45104 36197 ft 384 kts 260°
2026-04-20 20:13 32.23064 -102.54454 36196 ft 384 kts 260°
2026-04-20 20:13 32.22298 -102.60685 36192 ft 384 kts 260°
2026-04-20 20:14 32.21525 -102.66956 36191 ft 384 kts 260°
2026-04-20 20:14 32.20751 -102.73200 36190 ft 384 kts 260°
2026-04-20 20:15 32.19977 -102.79426 36186 ft 384 kts 260°
2026-04-20 20:15 32.19202 -102.85648 36187 ft 384 kts 260°
2026-04-20 20:16 32.18428 -102.91816 36189 ft 385 kts 260°
2026-04-20 20:16 32.17640 -102.98075 36184 ft 385 kts 260°
2026-04-20 20:17 32.16852 -103.04318 36187 ft 385 kts 260°
2026-04-20 20:17 32.16059 -103.10561 36182 ft 385 kts 260°
2026-04-20 20:18 32.15263 -103.16808 36181 ft 386 kts 260°
2026-04-20 20:18 32.14460 -103.23086 36179 ft 386 kts 260°
2026-04-20 20:19 32.13657 -103.29335 36183 ft 385 kts 260°
2026-04-20 20:19 32.12854 -103.35558 36179 ft 386 kts 260°
2026-04-20 20:20 32.12044 -103.41819 36174 ft 386 kts 260°
2026-04-20 20:20 32.11236 -103.48042 36177 ft 385 kts 260°
2026-04-20 20:21 32.10422 -103.54275 36173 ft 386 kts 260°
2026-04-20 20:21 32.09602 -103.60528 36172 ft 385 kts 260°
2026-04-20 20:22 32.08776 -103.66805 36171 ft 386 kts 259°
2026-04-20 20:22 32.07955 -103.73023 36169 ft 386 kts 259°
2026-04-20 20:23 32.07127 -103.79266 36161 ft 386 kts 259°
2026-04-20 20:23 32.06296 -103.85511 36160 ft 386 kts 259°
2026-04-20 20:24 32.05463 -103.91750 36159 ft 386 kts 260°
2026-04-20 20:24 32.04621 -103.98029 36164 ft 386 kts 259°
2026-04-20 20:25 32.03780 -104.04274 35895 ft 387 kts 259°
2026-04-20 20:25 32.03360 -104.07388 35652 ft 385 kts 259°
2026-04-20 20:25 32.02943 -104.10474 35412 ft 384 kts 259°
2026-04-20 20:26 32.02520 -104.13588 35175 ft 385 kts 259°
2026-04-20 20:26 32.02096 -104.16715 34966 ft 387 kts 259°
2026-04-20 20:26 32.01671 -104.19843 34762 ft 388 kts 259°
2026-04-20 20:26 32.01242 -104.22986 34549 ft 388 kts 259°
2026-04-20 20:27 32.00812 -104.26126 34321 ft 389 kts 259°
2026-04-20 20:27 32.00381 -104.29275 33911 ft 391 kts 259°
2026-04-20 20:27 31.99951 -104.32414 33488 ft 389 kts 259°
2026-04-20 20:27 31.99520 -104.35551 33033 ft 389 kts 259°
2026-04-20 20:28 31.99227 -104.37676 32723 ft 390 kts 259°
2026-04-20 20:28 31.98663 -104.41882 32112 ft 392 kts 261°
2026-04-20 20:28 31.98307 -104.45062 31656 ft 395 kts 262°
2026-04-20 20:28 31.97993 -104.48228 31193 ft 396 kts 262°
2026-04-20 20:29 31.97684 -104.51472 30725 ft 397 kts 262°
2026-04-20 20:29 31.97377 -104.54686 30261 ft 398 kts 262°
2026-04-20 20:29 31.97066 -104.57896 29797 ft 399 kts 262°
2026-04-20 20:29 31.96741 -104.61179 29269 ft 402 kts 262°
2026-04-20 20:30 31.96414 -104.64440 28758 ft 403 kts 262°
2026-04-20 20:30 31.96085 -104.67694 28235 ft 400 kts 261°
2026-04-20 20:30 31.95763 -104.70860 27718 ft 397 kts 261°
2026-04-20 20:30 31.95429 -104.74118 27194 ft 394 kts 261°
2026-04-20 20:31 31.95101 -104.77312 26675 ft 391 kts 261°
2026-04-20 20:31 31.94777 -104.80445 26165 ft 389 kts 261°
2026-04-20 20:31 31.94449 -104.83603 25649 ft 388 kts 261°
2026-04-20 20:31 31.94121 -104.86750 25135 ft 386 kts 261°
2026-04-20 20:32 31.93798 -104.89842 24626 ft 384 kts 261°
2026-04-20 20:32 31.93473 -104.92956 24091 ft 381 kts 261°
2026-04-20 20:32 31.93153 -104.95999 23565 ft 378 kts 261°
2026-04-20 20:32 31.92829 -104.99079 23033 ft 376 kts 261°
2026-04-20 20:33 31.92510 -105.02111 22514 ft 373 kts 261°
2026-04-20 20:33 31.92194 -105.05102 22002 ft 371 kts 261°
2026-04-20 20:33 31.91876 -105.08112 21488 ft 369 kts 261°
2026-04-20 20:33 31.91564 -105.11059 20982 ft 366 kts 261°
2026-04-20 20:34 31.91248 -105.14036 20468 ft 364 kts 261°
2026-04-20 20:34 31.90934 -105.16980 19965 ft 362 kts 261°
2026-04-20 20:34 31.90626 -105.19878 19489 ft 360 kts 262°
2026-04-20 20:34 31.90314 -105.22794 19010 ft 358 kts 262°
2026-04-20 20:35 31.90007 -105.25661 18536 ft 356 kts 262°
2026-04-20 20:35 31.89692 -105.28594 18054 ft 353 kts 262°
2026-04-20 20:35 31.89386 -105.31439 17585 ft 352 kts 262°
2026-04-20 20:35 31.89080 -105.34280 17121 ft 349 kts 262°
2026-04-20 20:36 31.88779 -105.37066 16667 ft 347 kts 262°
2026-04-20 20:36 31.88473 -105.39887 16206 ft 346 kts 262°
2026-04-20 20:36 31.88172 -105.42661 15748 ft 344 kts 262°
2026-04-20 20:36 31.87868 -105.45463 15327 ft 341 kts 262°
2026-04-20 20:37 31.87578 -105.48207 14945 ft 340 kts 263°
2026-04-20 20:37 31.87428 -105.50958 14558 ft 334 kts 268°
2026-04-20 20:37 31.87413 -105.53642 14171 ft 328 kts 270°
2026-04-20 20:37 31.87441 -105.56284 13786 ft 323 kts 270°
2026-04-20 20:38 31.87467 -105.58917 13414 ft 317 kts 270°
2026-04-20 20:38 31.87478 -105.61479 13051 ft 312 kts 269°
2026-04-20 20:38 31.87476 -105.64003 12695 ft 307 kts 269°
2026-04-20 20:38 31.87466 -105.66504 12357 ft 302 kts 269°
2026-04-20 20:39 31.87451 -105.68956 12020 ft 298 kts 269°
2026-04-20 20:39 31.87434 -105.71358 11689 ft 294 kts 269°
2026-04-20 20:39 31.87417 -105.73766 11351 ft 291 kts 269°
2026-04-20 20:39 31.87400 -105.76113 11020 ft 287 kts 269°
2026-04-20 20:40 31.87384 -105.78419 10704 ft 279 kts 269°
2026-04-20 20:40 31.87367 -105.80704 10373 ft 281 kts 269°
2026-04-20 20:40 31.87349 -105.83011 10038 ft 281 kts 269°
2026-04-20 20:40 31.87331 -105.85289 9707 ft 280 kts 269°
2026-04-20 20:41 31.87314 -105.87557 9376 ft 279 kts 269°
2026-04-20 20:41 31.87296 -105.89844 9106 ft 275 kts 269°
2026-04-20 20:41 31.87257 -105.92073 9078 ft 276 kts 267°
2026-04-20 20:41 31.87179 -105.94319 9081 ft 277 kts 266°
2026-04-20 20:42 31.87086 -105.96600 9077 ft 275 kts 266°
2026-04-20 20:42 31.87002 -105.98764 9077 ft 255 kts 267°
2026-04-20 20:42 31.86928 -106.00764 9078 ft 233 kts 267°
2026-04-20 20:42 31.86860 -106.02651 9071 ft 233 kts 267°
2026-04-20 20:43 31.86791 -106.04557 8885 ft 234 kts 267°
2026-04-20 20:43 31.86724 -106.06416 8642 ft 222 kts 267°
2026-04-20 20:43 31.86659 -106.08182 8375 ft 213 kts 267°
2026-04-20 20:43 31.86596 -106.09912 8130 ft 206 kts 267°
2026-04-20 20:44 31.86526 -106.11593 7914 ft 206 kts 264°
2026-04-20 20:44 31.86194 -106.13203 7699 ft 205 kts 244°
2026-04-20 20:44 31.85471 -106.14655 7485 ft 205 kts 237°
2026-04-20 20:44 31.84722 -106.16074 7256 ft 204 kts 238°
2026-04-20 20:45 31.84009 -106.17517 7029 ft 204 kts 240°
2026-04-20 20:45 31.83316 -106.18971 6803 ft 204 kts 240°
2026-04-20 20:45 31.82619 -106.20431 6575 ft 204 kts 240°
2026-04-20 20:45 31.81929 -106.21857 6390 ft 201 kts 240°
2026-04-20 20:46 31.81320 -106.23295 6192 ft 191 kts 245°
2026-04-20 20:46 31.80813 -106.24693 5988 ft 180 kts 248°
2026-04-20 20:46 31.80452 -106.26063 5788 ft 167 kts 254°
2026-04-20 20:46 31.80199 -106.27380 5527 ft 169 kts 258°
2026-04-20 20:47 31.80005 -106.28748 5270 ft 168 kts 262°
2026-04-20 20:47 31.79891 -106.30102 4962 ft 166 kts 266°
2026-04-20 20:47 31.79870 -106.31421 4706 ft 159 kts 270°
2026-04-20 20:47 31.79898 -106.32714 4511 ft 157 kts 273°
2026-04-20 20:48 31.79971 -106.34027 4292 ft 161 kts 274°
2026-04-20 20:48 31.80036 -106.35329 4052 ft 160 kts 273°
2026-04-20 20:48 31.80095 -106.36616 3957 ft 151 kts 272°
2026-04-20 20:48 31.80142 -106.37620 3946 ft 94 kts 275°
2026-04-20 20:49 31.80168 -106.38219 3939 ft 58 kts 275°
2026-04-20 20:49 31.80188 -106.38592 3934 ft 34 kts 272°
2026-04-20 20:49 31.80175 -106.38770 3932 ft 14 kts 223°
2026-04-20 20:49 31.80091 -106.38786 3932 ft 10 kts 185°
2026-04-20 20:50 31.80022 -106.38820 3932 ft 10 kts 220°
2026-04-20 20:50 31.79989 -106.38897 3931 ft 11 kts 268°
2026-04-20 20:50 31.79989 -106.38995 3929 ft 13 kts 275°
2026-04-20 20:50 31.80039 -106.39101 3928 ft 15 kts 315°
2026-04-20 20:51 31.80111 -106.39188 3928 ft 13 kts 308°
2026-04-20 20:51 31.80134 -106.39281 3927 ft 10 kts 275°
2026-04-20 20:51 31.80137 -106.39361 3926 ft 8 kts 258°
2026-04-20 20:51 31.80106 -106.39391 3926 ft 4 kts 186°
2026-04-20 20:52 31.80079 -106.39391 3926 ft 2 kts 176°
2026-04-20 20:52 31.80063 -106.39389 3926 ft 0 kts 175°